EHI
0 0 0 0 0 0 0 0 0 0 0 0 0 0 0 0 0 0 0 0 0 0 0 0 0 0 0 0 0 0 1 2 3 3 3 4 5 5 3 1 0 0 0 0
0 0 0 0 0 0 0 0 0 0 0 0 0 0 0 0 0 0 0 0 0 0 0 0 0 0 0 0 0 0 0 1 2 3 3 3 4 4 2 0 0 0 0 0
0 0 0 0 0 0 0 0 0 0 0 0 0 0 0 0 0 0 0 0 0 0 0 0 0 0 0 0 0 0 0 0 1 3 3 3 3 3 1 0 0 0 0 0
0 0 0 0 0 0 0 0 0 0 0 0 0 0 0 0 0 0 0 0 0 0 0 0 0 0 0 0 0 0 0 0 1 2 3 3 3 3 1 0 0 0 0 0
0 0 0 0 0 0 0 0 0 0 0 0 0 0 0 0 0 0 0 0 0 0 0 0 0 0 0 0 0 0 0 0 0 1 2 3 3 3 2 1 0 0 0 0
0 0 0 0 0 0 0 0 0 0 0 0 0 0 0 0 0 0 0 0 0 0 0 0 0 0 0 0 0 0 0 0 0 0 1 2 3 3 2 1 0 0 0 0
0 0 0 0 0 0 0 0 0 0 0 0 0 0 0 0 0 0 0 0 0 0 0 0 0 0 0 0 0 0 0 0 0 0 0 1 1 2 2 1 0 0 0 0
0 0 0 0 0 0 0 0 0 0 0 0 0 0 0 0 0 0 0 0 0 0 0 0 0 0 0 0 0 0 0 0 0 0 0 0 0 1 2 1 0 0 0 0
0 0 0 0 0 0 0 0 0 0 0 0 0 0 0 0 0 0 0 0 0 0 0 0 0 0 0 0 0 0 0 0 0 0 0 0 0 0 1 1 0 0 0 0
0 0 0 0 0 0 0 0 0 0 0 0 0 0 0 0 0 0 0 0 0 0 0 0 0 0 0 0 0 0 0 0 0 0 0 0 0 0 0 0 0 0 0 0
0 0 0 0 0 0 0 0 0 0 0 0 0 0 0 0 0 0 0 0 0 0 0 0 0 0 0 0 0 0 0 0 0 0 0 0 0 0 0 0 0 0 0 0
0 0 0 0 0 0 0 0 0 0 0 0 0 0 0 0 0 0 0 0 0 0 0 0 0 0 0 0 0 0 0 0 0 0 0 0 0 0 0 0 0 0 0 0
0 0 0 0 0 0 0 0 0 0 0 0 0 0 0 0 0 0 0 0 0 0 0 0 0 0 0 0 0 0 0 0 0 0 0 0 0 0 0 0 0 0 0 0
0 0 0 0 0 0 0 0 0 0 0 0 0 0 0 0 0 0 0 0 0 0 0 0 0 0 0 0 0 0 0 0 0 0 0 0 0 0 0 0 0 0 0 0
0 0 0 0 0 0 0 0 0 0 0 0 0 0 0 0 0 0 0 0 0 0 0 0 0 0 0 0 0 0 0 0 0 0 0 0 0 0 0 0 0 0 0 0
0 0 0 0 0 0 0 0 0 0 0 0 0 0 0 0 0 0 0 0 0 0 0 0 0 0 0 0 0 0 0 0 0 0 0 0 0 0 0 0 0 0 0 0
0 0 0 0 0 0 0 0 0 0 0 0 0 0 0 0 0 0 0 0 0 0 0 0 0 0 0 0 0 0 0 0 0 0 0 0 0 0 0 0 0 0 0 0
0 0 0 0 0 0 0 0 0 0 0 0 0 0 0 0 0 0 0 0 0 0 0 0 0 0 0 0 0 0 0 0 0 0 0 0 0 0 0 0 0 0 0 0
0 0 0 0 0 0 0 0 0 0 0 0 0 0 0 0 0 0 0 0 0 0 0 0 0 0 0 0 0 0 0 0 0 0 0 0 0 0 0 0 0 0 0 0
0 0 0 0 0 0 0 0 0 0 0 0 0 0 0 0 0 0 0 0 0 0 0 0 0 0 0 0 0 0 0 0 0 0 0 0 0 0 0 0 0 0 0 0
0 0 0 0 0 0 0 0 0 0 0 0 0 0 0 0 0 0 0 0 0 0 0 0 0 0 0 0 0 0 0 0 0 0 0 0 0 0 0 0 0 0 0 0
0 0 0 0 0 0 0 0 0 0 0 0 0 0 0 0 0 0 0 0 0 0 0 0 0 0 0 0 0 0 0 0 0 0 0 0 0 0 0 0 0 0 0 0
0 0 0 0 0 0 0 0 0 0 0 0 0 0 0 0 0 0 0 0 0 0 0 0 0 0 0 0 0 0 0 0 0 0 0 0 0 0 0 0 0 0 0 0
0 0 0 0 0 0 0 0 0 0 0 0 0 0 0 0 0 0 0 0 0 0 0 0 0 0 0 0 0 0 0 0 0 0 0 0 0 0 0 0 0 0 0 0
0 0 0 0 0 0 0 0 0 0 0 0 0 0 0 0 0 0 0 0 0 0 0 0 0 0 0 0 0 0 0 0 0 0 0 0 0 0 0 0 0 0 0 0
0 0 0 0 0 0 0 0 0 0 0 0 0 0 0 0 0 0 0 0 0 0 0 0 0 0 0 0 0 0 0 0 0 0 0 0 0 0 0 0 0 0 0 0
Wind_Speed
1 2 3 4 4 3 3 5 7 5 3 6 10 12 11 8 8 8 7 6 6 5 4 3 3 3 2 2 2 2 2 1 1 1 2 2 1 2 2 2 2 2 2 2
2 3 1 1 2 2 4 6 6 4 2 5 9 13 11 7 7 6 6 5 6 5 4 3 3 2 2 2 2 2 2 2 2 2 2 2 2 2 2 2 2 2 2 2
4 1 1 3 3 4 5 6 5 5 5 4 7 10 7 4 4 4 4 4 4 4 4 3 3 3 3 3 3 2 2 3 2 2 1 2 2 2 2 2 2 2 3 3
2 1 2 3 3 4 5 2 4 4 5 4 3 8 5 4 4 4 4 3 3 3 4 3 3 3 3 3 3 3 2 3 3 2 2 2 2 3 3 2 3 3 4 4
1 1 2 3 2 3 1 1 2 4 5 6 6 7 6 3 5 5 4 4 3 3 3 3 3 3 3 3 2 2 3 3 3 3 3 4 3 3 3 3 3 3 3 4
1 1 1 0 1 0 1 1 1 2 4 7 6 8 6 3 4 3 3 4 4 3 3 3 3 3 2 2 2 2 3 3 3 3 4 5 4 4 4 4 4 3 3 3
1 1 1 0 1 2 2 2 2 3 5 6 2 7 6 0 1 2 3 4 3 3 3 3 3 3 3 2 2 3 3 4 4 4 5 5 5 5 6 5 4 4 3 3
3 3 1 1 1 2 2 4 4 5 6 4 3 8 3 1 2 2 3 3 3 3 3 3 3 3 3 3 3 3 4 5 4 5 5 5 5 4 4 5 5 5 4 4
4 2 1 2 2 2 3 3 2 3 3 7 7 6 5 2 2 2 3 4 4 4 4 4 4 4 4 4 4 4 5 5 5 5 5 5 5 5 6 6 6 5 5 5
1 2 1 1 1 1 2 2 3 4 5 8 7 7 4 2 4 4 4 5 6 6 6 5 4 4 4 4 4 5 5 5 5 5 5 4 5 6 6 6 6 6 6 6
1 2 1 3 4 4 3 3 3 3 4 6 7 4 1 3 4 5 5 6 6 7 7 6 5 5 5 4 4 4 5 5 5 5 5 5 5 5 6 6 6 6 6 6
1 2 3 3 1 3 3 4 5 4 5 5 7 6 2 3 4 5 6 7 7 7 7 6 5 5 5 5 5 5 5 4 5 5 5 5 5 5 6 6 6 7 7 6
3 3 2 3 3 3 3 3 3 2 3 5 8 7 1 4 5 6 7 8 7 7 7 7 6 5 5 5 5 5 5 5 4 5 5 5 5 5 5 6 6 7 7 7
2 4 6 7 3 3 5 6 6 5 6 8 11 12 9 8 8 9 8 7 8 7 7 7 7 6 6 5 5 5 5 4 4 5 4 4 5 5 6 6 6 6 7 7
2 4 4 6 6 5 7 8 9 11 10 10 10 11 12 9 9 8 8 8 8 8 8 8 8 8 7 6 6 5 5 4 4 4 4 4 5 5 6 6 6 6 7 7
2 3 2 5 3 4 8 10 11 12 11 12 14 14 8 7 6 7 8 8 9 9 9 9 9 9 8 8 7 6 5 5 4 4 5 5 5 5 6 6 6 6 7 7
4 4 3 4 2 4 8 8 10 8 8 8 10 8 6 7 8 8 8 8 8 9 9 9 9 9 9 8 7 7 5 4 4 5 5 5 5 6 6 6 6 7 7 7
5 4 2 2 2 8 2 1 4 6 7 7 8 7 7 9 10 9 7 7 8 9 9 9 8 9 9 8 7 6 5 4 5 5 5 5 5 6 7 7 7 7 7 7
3 4 3 3 5 7 3 2 3 5 6 5 7 8 7 7 8 5 3 5 7 8 9 8 8 8 8 8 6 6 5 5 5 5 6 6 6 7 7 7 7 7 7 7
1 2 3 4 6 7 1 2 1 2 5 2 3 6 6 5 6 5 5 7 9 8 8 8 8 8 7 7 6 5 6 5 6 6 7 7 6 7 7 8 8 7 7 8
3 3 5 6 7 7 0 2 3 4 3 1 3 5 5 5 6 8 9 8 8 8 8 8 7 7 7 7 6 6 7 7 7 7 7 6 7 7 8 8 7 7 7 7
6 5 6 5 7 6 3 4 5 2 2 2 3 4 5 7 8 8 9 8 8 8 8 8 7 7 7 7 6 7 8 8 7 7 7 6 6 6 6 7 6 6 6 7
5 4 3 6 5 2 3 3 2 1 3 4 4 5 5 6 7 8 8 8 8 8 7 7 7 8 8 7 6 7 8 8 7 7 7 7 6 6 6 6 6 5 5 5
3 1 4 5 6 5 4 4 4 4 5 5 5 5 5 6 7 8 7 7 7 7 7 7 7 8 8 8 7 7 8 7 6 7 7 7 6 6 6 5 4 4 5 5
3 3 4 6 6 5 5 5 5 5 4 5 5 5 5 6 7 7 7 7 7 7 7 6 7 8 9 9 8 8 7 7 7 7 7 7 6 6 5 5 4 5 5 5
3 5 5 5 3 4 5 4 4 4 5 5 5 5 5 5 6 7 6 6 7 7 7 7 7 8 8 8 8 8 7 7 7 7 7 6 5 5 5 5 5 6 7 9
Wind_Direction
32 197 209 214 229 281 245 241 259 273 299 270 257 266 266 259 249 245 240 239 244 253 268 276 265 262 270 279 296 298 262 259 264 272 275 249 249 268 270 267 270 269 269 281
181 217 228 207 206 226 231 246 261 278 300 283 277 274 267 247 234 235 237 242 250 252 258 270 263 261 268 271 276 287 284 256 249 255 267 256 256 251 263 265 263 259 259 263
210 105 182 192 204 225 243 250 260 278 305 264 285 269 230 207 212 221 236 248 252 260 272 273 268 261 262 267 266 272 279 276 255 248 255 257 247 252 253 265 263 261 260 251
208 173 200 208 222 234 253 257 257 263 270 266 274 280 236 200 214 223 239 248 259 269 272 264 259 264 264 268 267 269 273 275 273 247 248 242 242 263 283 281 276 269 255 251
171 192 208 219 244 249 270 354 267 258 254 264 230 251 254 184 231 240 237 250 268 273 278 273 265 260 264 266 267 264 266 272 281 263 252 238 242 256 263 265 270 276 263 253
82 333 313 300 12 244 149 213 215 218 231 247 222 233 255 202 234 258 255 267 282 288 291 283 273 259 260 256 259 264 263 269 274 269 257 238 240 252 260 264 270 273 275 268
183 161 98 267 170 157 224 240 261 235 225 241 154 238 254 263 281 292 300 298 298 288 292 290 284 276 271 266 266 267 266 269 273 270 261 243 237 241 247 255 258 265 268 270
214 212 158 313 277 219 219 246 252 263 266 272 215 241 248 7 339 331 321 316 323 308 305 293 283 277 276 271 271 270 264 266 269 268 269 248 239 238 242 247 254 255 259 264
228 219 53 355 338 264 189 206 321 280 283 269 248 258 270 240 304 331 341 340 333 319 316 305 293 284 281 278 274 272 271 272 273 270 271 255 244 242 246 250 251 251 256 261
243 239 247 292 208 38 313 163 185 219 256 265 263 256 261 275 300 307 317 327 324 320 315 309 299 293 288 283 281 275 272 272 277 278 271 262 253 248 246 249 253 255 256 257
219 205 223 218 218 210 177 191 219 224 261 267 278 271 12 293 310 299 300 312 317 317 309 305 299 294 292 291 288 279 275 276 278 281 276 268 264 258 252 250 254 256 257 255
173 217 238 240 360 315 257 223 199 230 236 246 270 276 55 327 326 317 310 311 315 315 312 309 299 291 290 293 291 287 282 280 281 282 278 275 274 268 262 256 256 259 260 258
164 185 232 215 192 192 226 221 225 244 242 233 248 265 28 322 327 320 313 315 318 317 316 314 309 297 293 294 291 287 286 285 287 282 276 277 280 274 269 268 264 260 261 260
202 223 242 263 292 195 227 227 217 212 229 243 247 269 286 303 315 318 316 314 313 313 314 314 313 309 304 299 296 286 287 288 288 281 275 277 281 277 274 274 270 263 259 258
203 234 247 274 282 259 251 243 225 226 236 247 264 267 280 299 303 306 307 311 312 314 317 317 315 313 312 308 300 294 292 292 285 278 276 278 282 280 276 276 274 268 262 261
199 224 239 268 267 263 265 252 238 238 243 252 268 276 293 305 305 303 302 307 307 310 313 316 316 314 311 307 299 297 293 289 281 274 278 281 280 279 274 276 275 273 267 263
185 183 220 257 314 283 259 238 220 227 228 233 252 274 318 309 304 302 300 302 300 305 308 312 314 311 308 304 295 288 282 284 281 277 278 280 281 280 280 278 275 273 271 265
181 181 219 262 259 241 269 72 213 227 245 240 262 285 298 302 301 290 283 290 300 306 307 309 310 309 307 306 300 290 286 277 275 276 278 278 279 281 283 278 273 273 272 267
208 186 199 226 253 267 267 212 192 220 259 235 250 278 302 318 302 283 279 297 303 306 305 305 307 307 309 307 306 302 291 281 277 276 279 281 282 281 280 277 274 273 271 269
120 199 208 218 245 253 287 98 144 201 257 194 245 278 301 316 302 321 334 318 312 313 312 312 315 314 314 317 315 308 301 293 286 286 285 283 280 276 275 275 274 272 269 267
172 193 214 227 246 265 15 143 171 225 300 2 267 276 280 277 283 310 316 313 312 314 314 316 317 316 318 320 318 310 306 299 298 294 288 285 282 279 276 275 273 271 270 269
189 188 200 207 229 251 129 158 209 276 0 286 283 283 281 283 294 303 308 311 316 319 320 322 320 319 321 322 320 312 310 309 308 302 295 290 288 286 282 279 276 272 269 268
216 217 217 214 234 334 179 214 261 302 276 283 286 283 279 286 295 303 307 310 312 314 316 320 320 318 322 324 320 311 312 316 312 307 302 299 297 293 288 282 280 278 271 268
230 260 241 254 262 270 257 268 278 276 276 282 282 281 276 281 292 300 304 308 311 313 316 318 318 317 319 323 321 313 316 319 315 311 309 308 305 301 299 291 282 277 275 274
235 198 238 259 281 296 267 255 269 281 283 285 287 282 277 279 288 295 300 304 307 311 314 315 313 312 314 319 320 321 323 325 320 316 314 314 310 305 302 297 289 285 280 278
206 203 220 255 265 262 282 289 273 276 282 285 290 296 292 284 284 294 296 299 303 307 311 313 313 312 314 318 319 323 326 326 321 318 318 316 312 310 307 305 304 298 292 299